Lid_Strength_Index
4 4 4 4 5 7 8 9 11 12 11 11 10 9 9 10 10 9 9 10 12 13
4 4 4 5 4 5 7 8 10 11 13 12 12 11 10 11 12 11 11 12 13 14
5 5 4 5 5 6 6 9 11 13 14 14 13 13 13 13 14 13 13 14 14 15
6 5 5 6 6 7 8 11 12 13 15 15 15 15 14 15 15 15 15 15 15 16
6 6 7 7 8 9 10 12 13 14 14 15 16 15 15 16 15 16 16 16 16 17
7 7 8 8 9 10 12 13 13 14 15 16 16 16 15 16 16 16 16 16 17 18
8 8 8 8 9 11 12 14 15 15 16 16 16 16 16 16 16 16 16 17 17 18
8 8 9 9 10 12 13 14 15 16 16 17 17 17 17 17 17 17 17 17 17 17
9 10 10 11 13 14 15 16 16 17 17 17 17 15 14 16 17 17 18 18 18 17
11 11 12 13 14 15 16 16 17 17 17 17 17 14 14 15 17 17 18 18 18 18
12 13 13 14 15 15 16 17 17 17 17 17 17 14 14 15 17 17 17 17 18 17
12 13 14 15 15 15 16 16 16 16 17 17 17 14 14 16 17 17 17 17 17 15
12 13 14 14 14 15 15 16 16 16 16 16 17 13 14 16 16 17 17 17 17 16
13 13 13 14 14 15 15 16 17 17 17 17 15 15 14 15 16 17 17 17 17 16